Location: Hackbridge
(51.3833°N, 0.1500°W)
Time: 10:45:03
(UTC+00:00)

H-2A R/B - Pass Details

Date: 13 October 2019
Orbit: 734 x 837 km, 98.3° (Epoch: 17 November)

Event Time Altitude Azimuth Distance (km) Brightness Sun altitude
Exits shadow 17:50:09 - 89° (E) 2,566 4.0 -6.6°
Reaches altitude 10° 17:50:55 10° 82° (E) 2,397 3.9 -6.8°
Maximum altitude 17:53:43 15° 50° (NE) 2,103 3.8 -7.2°
Drops below altitude 10° 17:56:33 10° 18° (NNE) 2,434 4.4 -7.6°
Sets 17:59:58 0° 356° (N) 3,386 5.4 -8.2°
